linux/drivers/watchdog/
<<
>>
Prefs
Kconfig 65739 2019-07-21 07:02:05
Makefile 8316 2019-07-21 07:02:05
acquirewdt.c 8692 2019-07-21 07:02:05
advantechwdt.c 7991 2019-07-21 07:02:05
alim1535_wdt.c 10143 2019-07-21 07:02:05
alim7101_wdt.c 11174 2019-07-21 07:02:05
ar7_wdt.c 7202 2019-07-21 07:02:05
armada_37xx_wdt.c 10546 2019-07-21 07:02:05
asm9260_wdt.c 9076 2019-07-21 07:02:05
aspeed_wdt.c 9676 2019-07-21 07:02:05
at91rm9200_wdt.c 7849 2019-07-21 07:02:05
at91sam9_wdt.c 10733 2019-07-21 07:02:05
at91sam9_wdt.h 1318 2019-07-21 07:02:05
ath79_wdt.c 7593 2019-07-21 07:02:05
atlas7_wdt.c 5981 2019-07-21 07:02:05
bcm2835_wdt.c 6587 2019-07-21 07:02:05
bcm47xx_wdt.c 5890 2021-08-29 15:04:50 -0700
bcm63xx_wdt.c 6921 2019-07-21 07:02:05
bcm7038_wdt.c 5439 2019-07-21 07:02:05
bcm_kona_wdt.c 8926 2019-07-21 07:02:05
booke_wdt.c 5994 2019-07-21 07:02:05
cadence_wdt.c 12863 2019-07-21 07:02:05
coh901327_wdt.c 12246 2019-07-21 07:02:05
cpu5wdt.c 6807 2019-07-21 07:02:05
cpwd.c 16166 2019-07-21 07:02:05
da9052_wdt.c 4833 2019-07-21 07:02:05
da9055_wdt.c 4142 2019-07-21 07:02:05
da9062_wdt.c 5923 2019-07-21 07:02:05
da9063_wdt.c 6215 2019-07-21 07:02:05
davinci_wdt.c 8002 2019-07-21 07:02:05
diag288_wdt.c 7659 2019-07-21 07:02:05
digicolor_wdt.c 4050 2019-07-21 07:02:05
dw_wdt.c 8924 2019-07-21 07:02:05
ebc-c384_wdt.c 4118 2019-07-21 07:02:05
ep93xx_wdt.c 3773 2019-07-21 07:02:05
eurotechwdt.c 10955 2019-07-21 07:02:05
f71808e_wdt.c 22380 2019-07-21 07:02:05
ftwdt010_wdt.c 5661 2019-07-21 07:02:05
gef_wdt.c 7672 2019-07-21 07:02:05
geodewdt.c 6603 2019-07-21 07:02:05
gpio_wdt.c 4681 2019-07-21 07:02:05
hpwdt.c 9522 2019-07-21 07:02:05
i6300esb.c 10647 2019-07-21 07:02:05
iTCO_vendor.h 480 2019-07-21 07:02:05
iTCO_vendor_support.c 6639 2019-07-21 07:02:05
iTCO_wdt.c 17946 2019-07-21 07:02:05
ib700wdt.c 8527 2019-07-21 07:02:05
ibmasr.c 9628 2019-07-21 07:02:05
ie6xx_wdt.c 8492 2019-07-21 07:02:05
imgpdc_wdt.c 9643 2019-07-21 07:02:05
imx2_wdt.c 12175 2019-07-21 07:02:05
indydog.c 4703 2019-07-21 07:02:05
intel-mid_wdt.c 4670 2019-07-21 07:02:05
intel_scu_watchdog.c 15396 2019-07-21 07:02:05
intel_scu_watchdog.h 2053 2019-07-21 07:02:05
iop_wdt.c 6030 2019-07-21 07:02:05
it8712f_wdt.c 10199 2019-07-21 07:02:05
it87_wdt.c 7893 2019-07-21 07:02:05
ixp4xx_wdt.c 4680 2019-07-21 07:02:05
jz4740_wdt.c 6249 2019-07-21 07:02:05
kempld_wdt.c 14832 2019-07-21 07:02:05
ks8695_wdt.c 7838 2019-07-21 07:02:05
lantiq_wdt.c 7779 2019-07-21 07:02:05
loongson1_wdt.c 4114 2019-07-21 07:02:05
lpc18xx_wdt.c 9331 2019-07-21 07:02:05
m54xx_wdt.c 5130 2019-07-21 07:02:05
machzwd.c 10062 2019-07-21 07:02:05
max63xx_wdt.c 7189 2019-07-21 07:02:05
max77620_wdt.c 5566 2019-07-21 07:02:05
mei_wdt.c 15213 2019-07-21 07:02:05
mena21_wdt.c 5353 2019-07-21 07:02:05
menf21bmc_wdt.c 5492 2019-07-21 07:02:05
menz69_wdt.c 4055 2019-07-21 07:02:05
meson_gxbb_wdt.c 5697 2019-07-21 07:02:05
meson_wdt.c 6305 2019-07-21 07:02:05
mixcomwd.c 7442 2019-07-21 07:02:05
mlx_wdt.c 7965 2019-07-21 07:02:05
moxart_wdt.c 4601 2019-07-21 07:02:05
mpc8xxx_wdt.c 7641 2019-07-21 07:02:05
mt7621_wdt.c 4847 2019-07-21 07:02:05
mtk_wdt.c 6377 2019-07-21 07:02:05
mtx-1_wdt.c 5961 2019-07-21 07:02:05
mv64x60_wdt.c 7825 2019-07-21 07:02:05
ni903x_wdt.c 6899 2019-07-21 07:02:05
nic7018_wdt.c 6339 2019-07-21 07:02:05
npcm_wdt.c 5868 2019-07-21 07:02:05
nuc900_wdt.c 7317 2019-07-21 07:02:05
nv_tco.c 12493 2019-07-21 07:02:05
nv_tco.h 2062 2019-07-21 07:02:05
octeon-wdt-main.c 16868 2019-07-21 07:02:05
octeon-wdt-nmi.S 2042 2021-08-29 15:04:50 -0700
of_xilinx_wdt.c 7887 2019-07-21 07:02:05
omap_wdt.c 9814 2019-07-21 07:02:05
omap_wdt.h 2300 2019-07-21 07:02:05
orion_wdt.c 17051 2019-07-21 07:02:05
pc87413_wdt.c 14377 2019-07-21 07:02:05
pcwd.c 26534 2019-07-21 07:02:05
pcwd_pci.c 20386 2019-07-21 07:02:05
pcwd_usb.c 21626 2019-07-21 07:02:05
pic32-dmt.c 5743 2019-07-21 07:02:05
pic32-wdt.c 6240 2019-07-21 07:02:05
pika_wdt.c 6894 2019-07-21 07:02:05
pm8916_wdt.c 5499 2019-07-21 07:02:05
pnx4008_wdt.c 7247 2019-07-21 07:02:05
pnx833x_wdt.c 7250 2019-07-21 07:02:05
pretimeout_noop.c 1270 2019-07-21 07:02:05
pretimeout_panic.c 1252 2019-07-21 07:02:05
qcom-wdt.c 7032 2019-07-21 07:02:05
rave-sp-wdt.c 8344 2019-07-21 07:02:05
rc32434_wdt.c 8324 2019-07-21 07:02:05
rdc321x_wdt.c 7333 2019-07-21 07:02:05
renesas_wdt.c 7726 2019-07-21 07:02:05
retu_wdt.c 4630 2019-07-21 07:02:05
riowd.c 5716 2019-07-21 07:02:05
rn5t618_wdt.c 5299 2019-07-21 07:02:05
rt2880_wdt.c 5096 2019-07-21 07:02:05
rtd119x_wdt.c 4023 2019-07-21 07:02:05
rza_wdt.c 6230 2019-07-21 07:02:05
s3c2410_wdt.c 19667 2019-07-21 07:02:05
sa1100_wdt.c 5234 2019-07-21 07:02:05
sama5d4_wdt.c 7877 2019-07-21 07:02:05
sb_wdog.c 8737 2019-07-21 07:02:05
sbc60xxwdt.c 10359 2019-07-21 07:02:05
sbc7240_wdt.c 7049 2019-07-21 07:02:05
sbc8360.c 10039 2019-07-21 07:02:05
sbc_epx_c3.c 5119 2019-07-21 07:02:05
sbc_fitpc2_wdt.c 5377 2019-07-21 07:02:05
sbsa_gwdt.c 11305 2019-07-21 07:02:05
sc1200wdt.c 11407 2019-07-21 07:02:05
sc520_wdt.c 11087 2019-07-21 07:02:05
sch311x_wdt.c 13809 2019-07-21 07:02:05
scx200_wdt.c 6477 2019-07-21 07:02:05
shwdt.c 9311 2019-07-21 07:02:05
sirfsoc_wdt.c 5795 2019-07-21 07:02:05
smsc37b787_wdt.c 15476 2019-07-21 07:02:05
softdog.c 4654 2019-07-21 07:02:05
sp5100_tco.c 12816 2019-07-21 07:02:05
sp5100_tco.h 2307 2019-07-21 07:02:05
sp805_wdt.c 8915 2019-07-21 07:02:05
sprd_wdt.c 9936 2019-07-21 07:02:05
st_lpc_wdt.c 7256 2019-07-21 07:02:05
stm32_iwdg.c 7270 2019-07-21 07:02:05
stmp3xxx_rtc_wdt.c 3967 2019-07-21 07:02:05
stpmic1_wdt.c 3597 2019-07-21 07:02:05
sun4v_wdt.c 4600 2019-07-21 07:02:05
sunxi_wdt.c 7925 2019-07-21 07:02:05
tangox_wdt.c 5036 2019-07-21 07:02:05
tegra_wdt.c 7457 2019-07-21 07:02:05
tqmx86_wdt.c 3021 2019-07-21 07:02:05
ts4800_wdt.c 5377 2019-07-21 07:02:05
ts72xx_wdt.c 4415 2019-07-21 07:02:05
twl4030_wdt.c 3873 2019-07-21 07:02:05
txx9wdt.c 4683 2019-07-21 07:02:05
uniphier_wdt.c 6471 2019-07-21 07:02:05
ux500_wdt.c 4104 2019-07-21 07:02:05
via_wdt.c 7648 2019-07-21 07:02:05
w83627hf_wdt.c 11912 2019-07-21 07:02:05
w83877f_wdt.c 10178 2019-07-21 07:02:05
w83977f_wdt.c 12101 2019-07-21 07:02:05
wafer5823wdt.c 7264 2019-07-21 07:02:05
watchdog_core.c 10518 2019-07-21 07:02:05
watchdog_core.h 1330 2019-07-21 07:02:05
watchdog_dev.c 30140 2019-07-21 07:02:05
watchdog_pretimeout.c 4804 2019-07-21 07:02:05
watchdog_pretimeout.h 1684 2021-08-29 15:04:50 -0700
wd501p.h 1598 2019-07-21 07:02:05
wdat_wdt.c 12885 2019-07-21 07:02:05
wdrtas.c 15626 2019-07-21 07:02:05
wdt.c 15849 2019-07-21 07:02:05
wdt285.c 4856 2019-07-21 07:02:05
wdt977.c 12079 2019-07-21 07:02:05
wdt_pci.c 17676 2019-07-21 07:02:05
wm831x_wdt.c 7113 2019-07-21 07:02:05
wm8350_wdt.c 4098 2021-08-29 15:04:50 -0700
xen_wdt.c 4929 2019-07-21 07:02:05
ziirave_wdt.c 19780 2019-07-21 07:02:05
zx2967_wdt.c 7184 2019-07-21 07:02:05